TimeEST,TemperatureF,Dew PointF,Humidity,Sea Level PressureIn,VisibilityMPH,Wind Direction,Wind SpeedMPH,Gust SpeedMPH,PrecipitationIn,Events,Conditions,WindDirDegrees,DateUTC
12:51 AM,12.9,9.0,84,30.32,10.0,Calm,Calm,-,N/A,,Clear,0,2013-01-08 05:51:00
1:51 AM,12.9,9.0,84,30.32,10.0,Calm,Calm,-,N/A,,Clear,0,2013-01-08 06:51:00
2:51 AM,12.0,9.0,88,30.31,10.0,Calm,Calm,-,N/A,,Clear,0,2013-01-08 07:51:00
3:51 AM,12.0,8.1,84,30.30,10.0,Calm,Calm,-,N/A,,Clear,0,2013-01-08 08:51:00
4:51 AM,10.0,7.0,87,30.30,10.0,Calm,Calm,-,N/A,,Clear,0,2013-01-08 09:51:00
5:51 AM,10.9,7.0,84,30.31,10.0,Calm,Calm,-,N/A,,Clear,0,2013-01-08 10:51:00
6:51 AM,10.9,7.0,84,30.32,10.0,Calm,Calm,-,N/A,,Partly Cloudy,0,2013-01-08 11:51:00
7:51 AM,12.0,8.1,84,30.35,10.0,Calm,Calm,-,N/A,,Partly Cloudy,0,2013-01-08 12:51:00
8:51 AM,14.0,12.9,95,30.37,10.0,Calm,Calm,-,N/A,,Partly Cloudy,0,2013-01-08 13:51:00
9:51 AM,27.0,23.0,85,30.36,10.0,South,5.8,-,N/A,,Mostly Cloudy,190,2013-01-08 14:51:00
11:51 AM,34.0,24.1,67,30.33,10.0,South,10.4,-,N/A,,Overcast,180,2013-01-08 16:51:00
12:51 PM,36.0,25.0,64,30.32,10.0,South,5.8,-,N/A,,Overcast,190,2013-01-08 17:51:00
1:51 PM,37.0,25.0,62,30.32,10.0,South,6.9,-,N/A,,Mostly Cloudy,190,2013-01-08 18:51:00
2:51 PM,39.0,25.0,57,30.32,10.0,South,6.9,-,N/A,,Scattered Clouds,170,2013-01-08 19:51:00
3:51 PM,39.0,24.1,55,30.32,10.0,South,3.5,-,N/A,,Scattered Clouds,170,2013-01-08 20:51:00
4:51 PM,32.0,24.1,73,30.34,10.0,Calm,Calm,-,N/A,,Partly Cloudy,0,2013-01-08 21:51:00
5:51 PM,28.9,23.0,78,30.36,7.0,Calm,Calm,-,N/A,,Partly Cloudy,0,2013-01-08 22:51:00
6:51 PM,26.1,21.0,81,30.38,7.0,Calm,Calm,-,N/A,,Clear,0,2013-01-08 23:51:00
7:51 PM,25.0,21.0,85,30.38,6.0,Calm,Calm,-,N/A,,Clear,0,2013-01-09 00:51:00
8:51 PM,23.0,19.9,88,30.39,8.0,Calm,Calm,-,N/A,,Scattered Clouds,0,2013-01-09 01:51:00
9:51 PM,24.1,19.9,84,30.38,7.0,Calm,Calm,-,N/A,,Mostly Cloudy,0,2013-01-09 02:51:00
10:51 PM,24.1,19.9,84,30.39,7.0,Calm,Calm,-,N/A,,Mostly Cloudy,0,2013-01-09 03:51:00
11:51 PM,24.1,19.9,84,30.39,10.0,Calm,Calm,-,N/A,,Overcast,0,2013-01-09 04:51:00